Location: Little Baddow
(51.7333°N, 0.5667°E)
Time: 10:11:52
(UTC+00:00)

Cosmos 1300 Rocket - Pass Details

Date: 08 November 2025
Orbit: 594 x 620 km, 82.5° (Epoch: 11 December)

Event Time Altitude Azimuth Distance (km) Brightness Sun altitude
Rises 05:51:19 0° 342° (NNW) 2,887 6.7 -11.5°
Reaches altitude 10° 05:53:42 10° 333° (NNW) 1,972 5.8 -11.1°
Maximum altitude 05:57:36 32° 270° (W) 1,039 4.2 -10.6°
Drops below altitude 10° 06:01:26 10° 206° (SSW) 1,943 6.0 -10.0°
Sets 06:03:46 0° 197° (SSW) 2,837 6.9 -9.6°
